Location: Bellerive
(46.9237°N, 7.0223°E)
Time: 18:41:57
(UTC+00:00)

Cosmos 2237 Rocket - Pass Details

Date: 09 April 2020
Orbit: 833 x 851 km, 71.0° (Epoch: 02 June)

Event Time Altitude Azimuth Distance (km) Brightness Sun altitude
Rises 23:36:28 0° 339° (NNW) 3,409 6.2 -35.0°
Reaches altitude 10° 23:39:37 10° 356° (N) 2,474 5.4 -35.0°
Maximum altitude 23:43:43 20° 43° (NE) 1,866 4.4 -35.0°
Enters shadow 23:45:54 16° 71° (ENE) 2,055 4.4 -35.0°
